TimeCST,TemperatureF,Dew PointF,Humidity,Sea Level PressureIn,VisibilityMPH,Wind Direction,Wind SpeedMPH,Gust SpeedMPH,PrecipitationIn,Events,Conditions,WindDirDegrees,DateUTC
12:35 AM,62.6,39.2,42,30.15,10.0,North,11.5,-,N/A,,Clear,10,2013-02-28 06:35:00
12:55 AM,62.6,39.2,42,30.16,10.0,North,12.7,18.4,N/A,,Clear,10,2013-02-28 06:55:00
1:15 AM,62.6,37.4,39,30.16,10.0,North,12.7,-,N/A,,Clear,360,2013-02-28 07:15:00
1:35 AM,62.6,37.4,39,30.16,10.0,North,11.5,-,N/A,,Clear,10,2013-02-28 07:35:00
1:55 AM,62.6,39.2,42,30.16,10.0,North,11.5,-,N/A,,Clear,360,2013-02-28 07:55:00
2:15 AM,62.6,39.2,42,30.16,10.0,North,12.7,19.6,N/A,,Clear,10,2013-02-28 08:15:00
2:35 AM,62.6,39.2,42,30.16,10.0,North,13.8,20.7,N/A,,Clear,10,2013-02-28 08:35:00
2:55 AM,60.8,41.0,48,30.17,10.0,North,12.7,18.4,N/A,,Clear,360,2013-02-28 08:55:00
3:15 AM,60.8,37.4,42,30.17,10.0,North,12.7,-,N/A,,Clear,360,2013-02-28 09:15:00
3:35 AM,60.8,39.2,45,30.17,10.0,North,11.5,-,N/A,,Clear,360,2013-02-28 09:35:00
3:55 AM,60.8,37.4,42,30.17,10.0,North,10.4,17.3,N/A,,Clear,10,2013-02-28 09:55:00
4:15 AM,60.8,37.4,42,30.17,10.0,North,15.0,21.9,N/A,,Clear,360,2013-02-28 10:15:00
4:35 AM,60.8,37.4,42,30.16,10.0,North,13.8,20.7,N/A,,Clear,10,2013-02-28 10:35:00
4:55 AM,60.8,37.4,42,30.18,10.0,North,12.7,19.6,N/A,,Clear,350,2013-02-28 10:55:00
5:15 AM,59.0,37.4,45,30.18,10.0,North,12.7,19.6,N/A,,Clear,10,2013-02-28 11:15:00
5:55 AM,59.0,37.4,45,30.20,10.0,North,16.1,-,N/A,,Clear,360,2013-02-28 11:55:00
6:15 AM,59.0,37.4,45,30.20,10.0,North,15.0,23.0,N/A,,Clear,360,2013-02-28 12:15:00
6:35 AM,59.0,37.4,45,30.20,10.0,North,17.3,24.2,N/A,,Clear,360,2013-02-28 12:35:00
6:55 AM,57.2,39.2,51,30.21,10.0,North,17.3,24.2,N/A,,Clear,360,2013-02-28 12:55:00
7:15 AM,57.2,37.4,48,30.22,10.0,North,12.7,21.9,N/A,,Clear,360,2013-02-28 13:15:00
7:35 AM,57.2,37.4,48,30.23,10.0,North,15.0,21.9,N/A,,Clear,360,2013-02-28 13:35:00
7:55 AM,57.2,37.4,48,30.24,10.0,North,15.0,20.7,N/A,,Clear,350,2013-02-28 13:55:00
8:15 AM,57.2,39.2,51,30.25,10.0,North,13.8,20.7,N/A,,Clear,350,2013-02-28 14:15:00
8:35 AM,57.2,39.2,51,30.26,10.0,North,12.7,21.9,N/A,,Clear,350,2013-02-28 14:35:00
8:55 AM,57.2,35.6,44,30.27,10.0,North,11.5,20.7,N/A,,Clear,350,2013-02-28 14:55:00
9:15 AM,57.2,39.2,51,30.27,10.0,North,13.8,-,N/A,,Clear,360,2013-02-28 15:15:00
9:35 AM,57.2,39.2,51,30.27,10.0,North,12.7,18.4,N/A,,Clear,350,2013-02-28 15:35:00
9:55 AM,57.2,39.2,51,30.26,10.0,North,11.5,19.6,N/A,,Clear,350,2013-02-28 15:55:00
10:15 AM,57.2,39.2,51,30.26,10.0,North,11.5,18.4,N/A,,Clear,360,2013-02-28 16:15:00
10:35 AM,57.2,41.0,55,30.26,10.0,North,10.4,21.9,N/A,,Clear,350,2013-02-28 16:35:00
10:55 AM,57.2,41.0,55,30.26,10.0,North,12.7,-,N/A,,Clear,360,2013-02-28 16:55:00
11:15 AM,57.2,41.0,55,30.26,10.0,North,10.4,16.1,N/A,,Clear,360,2013-02-28 17:15:00
11:35 AM,57.2,42.8,59,30.26,10.0,NNW,10.4,-,N/A,,Clear,340,2013-02-28 17:35:00
11:55 AM,57.2,42.8,59,30.26,10.0,NNW,10.4,17.3,N/A,,Clear,340,2013-02-28 17:55:00
12:35 PM,55.4,41.0,58,30.25,10.0,North,10.4,-,N/A,,Clear,350,2013-02-28 18:35:00
12:55 PM,55.4,42.8,63,30.24,10.0,NNW,9.2,19.6,N/A,,Clear,340,2013-02-28 18:55:00
1:15 PM,55.4,41.0,58,30.23,10.0,NNW,10.4,-,N/A,,Clear,340,2013-02-28 19:15:00
1:35 PM,55.4,41.0,58,30.23,10.0,NNW,10.4,-,N/A,,Clear,340,2013-02-28 19:35:00
1:55 PM,55.4,39.2,54,30.22,10.0,NNW,10.4,17.3,N/A,,Clear,340,2013-02-28 19:55:00
2:15 PM,55.4,39.2,54,30.20,10.0,North,8.1,16.1,N/A,,Clear,350,2013-02-28 20:15:00
2:35 PM,55.4,39.2,54,30.20,10.0,NNW,10.4,-,N/A,,Clear,340,2013-02-28 20:35:00
2:55 PM,55.4,37.4,51,30.19,10.0,North,8.1,-,N/A,,Clear,350,2013-02-28 20:55:00
3:15 PM,57.2,33.8,41,30.19,10.0,North,11.5,-,N/A,,Clear,350,2013-02-28 21:15:00
3:35 PM,57.2,35.6,44,30.18,10.0,NNW,6.9,15.0,N/A,,Clear,340,2013-02-28 21:35:00
3:55 PM,57.2,35.6,44,30.19,10.0,NNW,8.1,15.0,N/A,,Partly Cloudy,340,2013-02-28 21:55:00
4:15 PM,57.2,35.6,44,30.18,10.0,NNW,8.1,15.0,N/A,,Partly Cloudy,340,2013-02-28 22:15:00
4:35 PM,57.2,35.6,44,30.18,10.0,NNW,6.9,17.3,N/A,,Partly Cloudy,340,2013-02-28 22:35:00
4:55 PM,57.2,35.6,44,30.19,10.0,NNW,10.4,-,N/A,,Clear,340,2013-02-28 22:55:00
5:15 PM,57.2,35.6,44,30.19,10.0,North,10.4,16.1,N/A,,Clear,360,2013-02-28 23:15:00
5:35 PM,57.2,37.4,48,30.19,10.0,NNW,6.9,13.8,N/A,,Clear,340,2013-02-28 23:35:00
6:15 PM,57.2,37.4,48,30.20,10.0,North,9.2,15.0,N/A,,Clear,350,2013-03-01 00:15:00
6:35 PM,57.2,37.4,48,30.21,10.0,North,8.1,13.8,N/A,,Clear,350,2013-03-01 00:35:00
7:15 PM,57.2,35.6,44,30.21,10.0,North,8.1,-,N/A,,Clear,360,2013-03-01 01:15:00
7:35 PM,59.0,35.6,42,30.22,10.0,NNW,8.1,-,N/A,,Clear,340,2013-03-01 01:35:00
7:55 PM,59.0,35.6,42,30.22,10.0,North,8.1,13.8,N/A,,Clear,350,2013-03-01 01:55:00
8:15 PM,59.0,33.8,39,30.23,10.0,North,8.1,-,N/A,,Clear,350,2013-03-01 02:15:00
8:35 PM,59.0,33.8,39,30.23,10.0,NNW,9.2,-,N/A,,Clear,340,2013-03-01 02:35:00
8:55 PM,59.0,33.8,39,30.23,10.0,North,8.1,-,N/A,,Clear,350,2013-03-01 02:55:00
9:15 PM,59.0,33.8,39,30.24,10.0,NNW,8.1,-,N/A,,Clear,340,2013-03-01 03:15:00
9:35 PM,59.0,33.8,39,30.25,10.0,NNW,6.9,-,N/A,,Clear,340,2013-03-01 03:35:00
9:55 PM,59.0,35.6,42,30.25,10.0,NNW,8.1,-,N/A,,Clear,340,2013-03-01 03:55:00
10:15 PM,59.0,33.8,39,30.25,10.0,NNW,8.1,-,N/A,,Clear,340,2013-03-01 04:15:00
10:35 PM,59.0,33.8,39,30.26,10.0,North,4.6,12.7,N/A,,Clear,350,2013-03-01 04:35:00
10:55 PM,60.8,32.0,34,30.27,10.0,NNW,6.9,15.0,N/A,,Clear,340,2013-03-01 04:55:00
11:15 PM,60.8,33.8,36,30.27,10.0,North,6.9,-,N/A,,Clear,350,2013-03-01 05:15:00
11:35 PM,60.8,33.8,36,30.26,10.0,North,5.8,12.7,N/A,,Clear,350,2013-03-01 05:35:00
11:55 PM,60.8,33.8,36,30.27,10.0,North,6.9,-,N/A,,Clear,360,2013-03-01 05:55:00